2020-11-01 00:07:53 r, 16.28m,0000000025Hz,0000017808c,0000000.039s, 008.0C,00002191
2020-11-01 00:17:56 r, 17.31m,0000000009Hz,0000046277c,0000000.100s, 008.0C,00002191
2020-11-01 00:27:54 r, 16.71m,0000000018Hz,0000026436c,0000000.057s, 007.7C,00002191
2020-11-01 00:37:53 r, 16.64m,0000000019Hz,0000024868c,0000000.054s, 007.7C,00002191
2020-11-01 00:47:56 r, 16.57m,0000000020Hz,0000023210c,0000000.050s, 007.4C,00002191
2020-11-01 00:57:54 r, 16.63m,0000000019Hz,0000024673c,0000000.054s, 007.0C,00002191
2020-11-01 01:07:53 r, 16.52m,0000000024Hz,0000022348c,0000000.048s, 007.0C,00002191
2020-11-01 01:17:54 r, 16.26m,0000000026Hz,0000017431c,0000000.038s, 007.0C,00002191
2020-11-01 01:27:55 r, 16.15m,0000000029Hz,0000015775c,0000000.034s, 007.0C,00002191
2020-11-01 01:37:53 r, 16.10m,0000000030Hz,0000015152c,0000000.033s, 006.7C,00002191
2020-11-01 01:47:55 r, 16.05m,0000000032Hz,0000014351c,0000000.031s, 006.7C,00002191
2020-11-01 01:57:54 r, 15.74m,0000000041Hz,0000010902c,0000000.024s, 006.7C,00002191
2020-11-01 01:07:53 r, 15.96m,0000000034Hz,0000013283c,0000000.029s, 006.7C,00002191
2020-11-01 01:17:54 r, 15.98m,0000000034Hz,0000013533c,0000000.029s, 006.7C,00002191
2020-11-01 01:27:56 r, 16.07m,0000000032Hz,0000014648c,0000000.032s, 006.7C,00002191
2020-11-01 01:37:53 r, 16.19m,0000000028Hz,0000016422c,0000000.036s, 006.7C,00002191
2020-11-01 01:47:56 r, 16.40m,0000000023Hz,0000019989c,0000000.043s, 006.7C,00002191
2020-11-01 01:57:54 r, 16.66m,0000000018Hz,0000025236c,0000000.055s, 006.7C,00002191
2020-11-01 02:07:53 r, 16.89m,0000000015Hz,0000031266c,0000000.068s, 006.7C,00002191
2020-11-01 02:17:56 r, 17.05m,0000000012Hz,0000036302c,0000000.079s, 006.7C,00002191
2020-11-01 02:27:54 r, 16.65m,0000000017Hz,0000025003c,0000000.054s, 006.7C,00002191
2020-11-01 02:37:53 r, 16.47m,0000000022Hz,0000021156c,0000000.046s, 007.0C,00002191
2020-11-01 02:47:54 r, 16.60m,0000000019Hz,0000023903c,0000000.052s, 007.7C,00002191
2020-11-01 02:57:55 r, 16.71m,0000000018Hz,0000026454c,0000000.057s, 007.7C,00002191
2020-11-01 03:07:53 r, 16.75m,0000000016Hz,0000027530c,0000000.060s, 008.0C,00002191
2020-11-01 03:17:55 r, 17.03m,0000000012Hz,0000035625c,0000000.077s, 008.0C,00002191
2020-11-01 03:27:54 r, 17.44m,0000000009Hz,0000051870c,0000000.113s, 008.0C,00002191
2020-11-01 03:37:53 r, 17.85m,0000000006Hz,0000075899c,0000000.165s, 007.7C,00002191
2020-11-01 03:47:54 r, 18.00m,0000000006Hz,0000086976c,0000000.189s, 007.4C,00002191
2020-11-01 03:57:56 r, 18.07m,0000000005Hz,0000092201c,0000000.200s, 007.0C,00002191
2020-11-01 04:07:53 r, 18.14m,0000000004Hz,0000099319c,0000000.216s, 006.7C,00002191
2020-11-01 04:17:56 r, 18.22m,0000000004Hz,0000106504c,0000000.231s, 006.4C,00002191
2020-11-01 04:27:54 r, 18.29m,0000000004Hz,0000113398c,0000000.246s, 006.1C,00002191
2020-11-01 04:37:53 r, 18.36m,0000000004Hz,0000121258c,0000000.263s, 005.8C,00002191
2020-11-01 04:47:56 r, 18.44m,0000000004Hz,0000130257c,0000000.283s, 005.4C,00002191
2020-11-01 04:57:54 r, 18.51m,0000000003Hz,0000139013c,0000000.302s, 005.1C,00002191
2020-11-01 05:07:53 r, 18.57m,0000000003Hz,0000146933c,0000000.319s, 005.1C,00002191
2020-11-01 05:17:54 r, 18.62m,0000000003Hz,0000154112c,0000000.334s, 004.8C,00002191
2020-11-01 05:27:54 r, 18.67m,0000000003Hz,0000161452c,0000000.350s, 004.5C,00002191
2020-11-01 05:37:53 r, 18.73m,0000000003Hz,0000171729c,0000000.373s, 004.1C,00002191
2020-11-01 05:47:55 r, 18.80m,0000000002Hz,0000180371c,0000000.391s, 003.8C,00002191
2020-11-01 05:57:54 r, 18.79m,0000000002Hz,0000179336c,0000000.389s, 003.5C,00002191
2020-11-01 06:07:53 r, 18.59m,0000000003Hz,0000150372c,0000000.326s, 003.2C,00002191
2020-11-01 06:17:56 r, 17.95m,0000000005Hz,0000083299c,0000000.181s, 003.2C,00002191
2020-11-01 06:27:54 r, 16.68m,0000000017Hz,0000025716c,0000000.056s, 002.9C,00002191
2020-11-01 06:37:53 r, 14.86m,0000000095Hz,0000004832c,0000000.010s, 002.5C,00002191
2020-11-01 06:47:56 r, 12.79m,0000000644Hz,0000000000c,0000000.000s, 002.5C,00002191
2020-11-01 06:57:54 r, 10.70m,0000004466Hz,0000000000c,0000000.000s, 002.2C,00002191
2020-11-01 07:07:53 r, 08.97m,0000022005Hz,0000000000c,0000000.000s, 002.2C,00002191
2020-11-01 07:17:54 r, 07.77m,0000066186Hz,0000000000c,0000000.000s, 002.2C,00002191
2020-11-01 07:27:55 r, 06.95m,0000140378Hz,0000000000c,0000000.000s, 002.5C,00002191
2020-11-01 07:37:53 r, 06.34m,0000247240Hz,0000000000c,0000000.000s, 002.9C,00002191
2020-11-01 07:47:55 r, 05.89m,0000374299Hz,0000000000c,0000000.000s, 003.5C,00002191
2020-11-01 07:57:54 r, 00.00m,0000489071Hz,0000000000c,0000000.000s, 004.8C,00002191
2020-11-01 08:07:53 r, 00.00m,0000598755Hz,0000000000c,0000000.000s, 006.1C,00002191
2020-11-01 08:17:53 r, 00.00m,0000598626Hz,0000000000c,0000000.000s, 007.0C,00002191
2020-11-01 08:27:56 r, 00.00m,0000598510Hz,0000000000c,0000000.000s, 008.0C,00002191
2020-11-01 08:37:53 r, 00.00m,0000598449Hz,0000000000c,0000000.000s, 009.0C,00002191
2020-11-01 08:47:53 r, 00.00m,0000598407Hz,0000000000c,0000000.000s, 009.9C,00002191
2020-11-01 08:57:54 r, 00.00m,0000598228Hz,0000000000c,0000000.000s, 010.6C,00002191
2020-11-01 09:07:53 r, 00.00m,0000598090Hz,0000000000c,0000000.000s, 011.2C,00002191
2020-11-01 09:17:53 r, 00.00m,0000598194Hz,0000000000c,0000000.000s, 011.6C,00002191
2020-11-01 09:27:54 r, 00.00m,0000598218Hz,0000000000c,0000000.000s, 012.2C,00002191
2020-11-01 09:37:53 r, 00.00m,0000598136Hz,0000000000c,0000000.000s, 012.5C,00002191
2020-11-01 09:47:53 r, 00.00m,0000598117Hz,0000000000c,0000000.000s, 012.8C,00002191
2020-11-01 09:57:55 r, 00.00m,0000597998Hz,0000000000c,0000000.000s, 013.5C,00002191
2020-11-01 10:07:53 r, 00.00m,0000597958Hz,0000000000c,0000000.000s, 013.5C,00002191
2020-11-01 10:17:53 r, 00.00m,0000597956Hz,0000000000c,0000000.000s, 014.1C,00002191
2020-11-01 10:27:56 r, 00.00m,0000597754Hz,0000000000c,0000000.000s, 014.8C,00002191
2020-11-01 10:37:53 r, 00.00m,0000597853Hz,0000000000c,0000000.000s, 015.1C,00002191
2020-11-01 10:47:53 r, 00.00m,0000597879Hz,0000000000c,0000000.000s, 014.5C,00002191
2020-11-01 10:57:56 r, 00.00m,0000597860Hz,0000000000c,0000000.000s, 014.5C,00002191
2020-11-01 11:07:53 r, 00.00m,0000597862Hz,0000000000c,0000000.000s, 014.5C,00002191
2020-11-01 11:17:53 r, 00.00m,0000597703Hz,0000000000c,0000000.000s, 015.7C,00002191
2020-11-01 11:27:54 r, 00.00m,0000597515Hz,0000000000c,0000000.000s, 016.7C,00002191
2020-11-01 11:37:53 r, 00.00m,0000597557Hz,0000000000c,0000000.000s, 017.4C,00002191
2020-11-01 11:47:53 r, 00.00m,0000597581Hz,0000000000c,0000000.000s, 016.4C,00002191
2020-11-01 11:57:54 r, 00.00m,0000597485Hz,0000000000c,0000000.000s, 016.7C,00002191
2020-11-01 12:07:53 r, 00.00m,0000597434Hz,0000000000c,0000000.000s, 017.7C,00002191
2020-11-01 12:17:53 r, 00.00m,0000597474Hz,0000000000c,0000000.000s, 018.0C,00002191
2020-11-01 12:27:55 r, 00.00m,0000597426Hz,0000000000c,0000000.000s, 018.3C,00002191
2020-11-01 12:37:54 r, 00.00m,0000597601Hz,0000000000c,0000000.000s, 016.4C,00002191
2020-11-01 12:47:53 r, 00.00m,0000597806Hz,0000000000c,0000000.000s, 014.5C,00002191
2020-11-01 12:57:56 r, 00.00m,0000597885Hz,0000000000c,0000000.000s, 013.8C,00002191
2020-11-01 13:07:54 r, 00.00m,0000597884Hz,0000000000c,0000000.000s, 013.8C,00002191
2020-11-01 13:17:53 r, 00.00m,0000597899Hz,0000000000c,0000000.000s, 013.8C,00002191
2020-11-01 13:27:54 r, 00.00m,0000597938Hz,0000000000c,0000000.000s, 013.8C,00002191
2020-11-01 13:37:55 r, 00.00m,0000598012Hz,0000000000c,0000000.000s, 013.8C,00002191
2020-11-01 13:47:53 r, 00.00m,0000597994Hz,0000000000c,0000000.000s, 013.8C,00002191
2020-11-01 13:57:55 r, 00.00m,0000597951Hz,0000000000c,0000000.000s, 013.8C,00002191
2020-11-01 14:07:54 r, 00.00m,0000597922Hz,0000000000c,0000000.000s, 014.1C,00002191
2020-11-01 14:17:53 r, 00.00m,0000597943Hz,0000000000c,0000000.000s, 014.1C,00002191
2020-11-01 14:27:54 r, 00.00m,0000597867Hz,0000000000c,0000000.000s, 014.5C,00002191
2020-11-01 14:37:56 r, 00.00m,0000597752Hz,0000000000c,0000000.000s, 015.4C,00002191
2020-11-01 14:47:53 r, 00.00m,0000597611Hz,0000000000c,0000000.000s, 016.7C,00002191
2020-11-01 14:57:56 r, 00.00m,0000597557Hz,0000000000c,0000000.000s, 017.4C,00002191
2020-11-01 15:07:54 r, 00.00m,0000597514Hz,0000000000c,0000000.000s, 017.7C,00002191
2020-11-01 15:17:53 r, 00.00m,0000597445Hz,0000000000c,0000000.000s, 017.7C,00002191
2020-11-01 15:27:56 r, 00.00m,0000597611Hz,0000000000c,0000000.000s, 017.4C,00002191
2020-11-01 15:37:54 r, 00.00m,0000597553Hz,0000000000c,0000000.000s, 017.0C,00002191
2020-11-01 15:47:53 r, 00.00m,0000597622Hz,0000000000c,0000000.000s, 017.0C,00002191
2020-11-01 15:57:54 r, 00.00m,0000597742Hz,0000000000c,0000000.000s, 016.7C,00002191
2020-11-01 16:07:55 r, 00.00m,0000535139Hz,0000000000c,0000000.000s, 016.7C,00002191
2020-11-01 16:17:53 r, 00.00m,0000553838Hz,0000000000c,0000000.000s, 016.4C,00002191
2020-11-01 16:27:55 r, 00.00m,0000442197Hz,0000000000c,0000000.000s, 016.1C,00002191
2020-11-01 16:37:54 r, 06.01m,0000334632Hz,0000000000c,0000000.000s, 015.4C,00002191
2020-11-01 16:47:53 r, 06.34m,0000246097Hz,0000000000c,0000000.000s, 014.8C,00002191
2020-11-01 16:57:54 r, 07.21m,0000110739Hz,0000000000c,0000000.000s, 014.5C,00002191
2020-11-01 17:07:56 r, 08.14m,0000046706Hz,0000000000c,0000000.000s, 013.8C,00002191
2020-11-01 17:17:53 r, 09.45m,0000013979Hz,0000000000c,0000000.000s, 013.5C,00002191
2020-11-01 17:27:56 r, 11.30m,0000002557Hz,0000000000c,0000000.000s, 013.2C,00002191
2020-11-01 17:37:54 r, 13.27m,0000000416Hz,0000000000c,0000000.000s, 012.8C,00002191
2020-11-01 17:47:53 r, 15.28m,0000000065Hz,0000007118c,0000000.015s, 013.2C,00002191
2020-11-01 17:57:56 r, 17.07m,0000000012Hz,0000036988c,0000000.080s, 013.2C,00002191
2020-11-01 18:07:54 r, 18.82m,0000000003Hz,0000182695c,0000000.396s, 012.8C,00002191
2020-11-01 18:17:53 r, 19.41m,0000000001Hz,0000316730c,0000000.687s, 012.8C,00002191
2020-11-01 18:27:54 r, 19.58m,0000000001Hz,0000367653c,0000000.798s, 012.8C,00002191
2020-11-01 18:37:55 r, 19.37m,0000000002Hz,0000303372c,0000000.658s, 012.5C,00002191
2020-11-01 18:47:53 r, 19.30m,0000000001Hz,0000288746c,0000000.627s, 012.5C,00002191
2020-11-01 18:57:55 r, 19.27m,0000000002Hz,0000277006c,0000000.601s, 012.5C,00002191
2020-11-01 19:07:54 r, 19.08m,0000000002Hz,0000233981c,0000000.508s, 012.5C,00002191
2020-11-01 19:17:53 r, 18.83m,0000000003Hz,0000185144c,0000000.402s, 012.8C,00002191
2020-11-01 19:27:54 r, 19.18m,0000000002Hz,0000254296c,0000000.552s, 012.8C,00002191
2020-11-01 19:37:56 r, 18.95m,0000000003Hz,0000206394c,0000000.448s, 012.8C,00002191
2020-11-01 19:47:53 r, 18.51m,0000000004Hz,0000139993c,0000000.304s, 012.5C,00002191
2020-11-01 19:57:56 r, 18.96m,0000000002Hz,0000209214c,0000000.454s, 012.5C,00002191
2020-11-01 20:07:54 r, 18.86m,0000000002Hz,0000189828c,0000000.412s, 012.5C,00002191
2020-11-01 20:17:53 r, 18.06m,0000000005Hz,0000091405c,0000000.198s, 012.5C,00002191
2020-11-01 20:27:54 r, 17.83m,0000000006Hz,0000074310c,0000000.161s, 012.8C,00002191
2020-11-01 20:37:55 r, 17.65m,0000000007Hz,0000063210c,0000000.137s, 013.2C,00002191
2020-11-01 20:47:53 r, 17.64m,0000000007Hz,0000062150c,0000000.135s, 013.2C,00002191
2020-11-01 20:57:55 r, 17.46m,0000000009Hz,0000053214c,0000000.115s, 013.2C,00002191
2020-11-01 21:07:54 r, 17.58m,0000000008Hz,0000058699c,0000000.127s, 013.5C,00002191
2020-11-01 21:17:53 r, 17.78m,0000000006Hz,0000071478c,0000000.155s, 013.5C,00002191
2020-11-01 21:27:54 r, 17.70m,0000000007Hz,0000065542c,0000000.142s, 013.2C,00002191
2020-11-01 21:37:56 r, 17.98m,0000000005Hz,0000085653c,0000000.186s, 013.2C,00002191
2020-11-01 21:47:53 r, 18.14m,0000000004Hz,0000099278c,0000000.215s, 013.2C,00002191
2020-11-01 21:57:56 r, 18.14m,0000000005Hz,0000098728c,0000000.214s, 012.8C,00002191
2020-11-01 22:07:54 r, 18.08m,0000000005Hz,0000093440c,0000000.203s, 012.8C,00002191
2020-11-01 22:17:53 r, 18.00m,0000000005Hz,0000087263c,0000000.189s, 012.5C,00002191
2020-11-01 22:27:56 r, 17.90m,0000000006Hz,0000079627c,0000000.173s, 012.5C,00002191
2020-11-01 22:37:54 r, 17.79m,0000000007Hz,0000071978c,0000000.156s, 012.2C,00002191
2020-11-01 22:47:53 r, 17.65m,0000000007Hz,0000063003c,0000000.137s, 012.2C,00002191
2020-11-01 22:57:54 r, 17.42m,0000000009Hz,0000051086c,0000000.111s, 011.9C,00002191
2020-11-01 23:07:55 r, 17.28m,0000000011Hz,0000044899c,0000000.097s, 011.9C,00002191
2020-11-01 23:17:53 r, 17.12m,0000000011Hz,0000038805c,0000000.084s, 011.9C,00002191
2020-11-01 23:27:55 r, 16.93m,0000000014Hz,0000032375c,0000000.070s, 011.9C,00002191
2020-11-01 23:37:54 r, 16.81m,0000000016Hz,0000029139c,0000000.063s, 011.6C,00002191
2020-11-01 23:47:53 r, 16.73m,0000000017Hz,0000026895c,0000000.058s, 011.6C,00002191
2020-11-01 23:57:54 r, 16.59m,0000000020Hz,0000023641c,0000000.051s, 011.6C,00002191
